Location: *
(49.0044°N, 9.5056°E)
Time: 15:49:29
(UTC+00:00)

Cosmos 2082 Rocket - Pass Details

Date: 22 September 2019
Orbit: 831 x 855 km, 71.0° (Epoch: 18 October)

Event Time Altitude Azimuth Distance (km) Brightness Sun altitude
Rises 23:13:40 0° 333° (NNW) 3,437 6.1 -40.9°
Reaches altitude 10° 23:16:11 10° 337° (NNW) 2,498 5.2 -40.9°
Enters shadow 23:18:05 21° 343° (NNW) 1,820 4.4 -40.9°
